Location: Boda
(47.1872°N, 9.5454°E)
Time: 09:28:38
(UTC+00:00)

Resurs 1-4 Rocket - Pass Details

Date: 14 May 2021
Orbit: 800 x 814 km, 98.6° (Epoch: 16 June)

Event Time Altitude Azimuth Distance (km) Brightness Sun altitude
Rises 01:25:53 0° 11° (N) 3,321 6.6 -18.2°
Reaches altitude 10° 01:28:14 10° 8° (N) 2,386 5.6 -18.0°
Maximum altitude 01:33:26 62° 289° (WNW) 901 2.2 -17.5°
Enters shadow 01:36:01 29° 219° (SW) 1,423 2.8 -17.2°
